Terminal Aerodrome Forecast
Issued by NWS Blacksburg, VA

Current Version | Previous Version | Graphics & Text | Print | Product List | Glossary On
Versions: 1 2 3 4 5 6 7 8 9 10 11 12 13 14 15 16 17 18 19 20 21 22 23 24 25 26 27 28 29 30 31 32 33 34 35 36 37 38 39 40 41 42 43 44 45 46 47 48 49 50
000
FTUS41 KRNK 021918 AAA
TAFBLF
TAF AMD
KBLF 021918Z 0219/0318 30011G31KT 1 1/2SM -TSRA SCT016 OVC035CB
      TEMPO 0219/0220 VRB15G30KT 1/4SM +TSRA FG OVC015CB
     FM022100 27010G20KT 4SM -TSRA OVC025CB
     FM030000 VRB05KT 4SM SHRA BR VCTS BKN015 OVC025CB
     FM030600 29004KT 4SM BR VCSH OVC013
     FM031600 28009KT P6SM SCT007 OVC015=

USA.gov is the U.S. government's official web portal to all federal, state and local government web resources and services.